Location: Columbia
(38.9520°N, 92.3340°W)
Time: 15:39:18
(UTC-05:00)

Iridium 52 - Visible Passes

Search period start: 27 September 2016 00:00
Search period end: 07 October 2016 00:00
Orbit: 776 x 779 km, 86.4° (Epoch: 26 September)

Date Brightness Start Highest point End Pass type
(mag) Time Alt. Az. Time Alt. Az. Time Alt. Az.
27 Sep 9.6 06:02:55 10° E 06:04:42 12° ENE 06:06:29 10° ENE visible
27 Sep 8.1 19:51:46 10° NNW 19:56:18 31° W 20:00:50 10° SW visible
28 Sep 6.9 19:17:49 10° N 19:22:57 58° W 19:28:02 10° SSW visible
29 Sep 8.2 06:33:16 10° SE 06:37:50 32° E 06:42:25 10° NNE visible
29 Sep 9.6 20:27:53 10° WNW 20:29:25 11° WNW 20:30:57 10° W visible
30 Sep 9.2 06:01:14 10° ESE 06:04:35 17° E 06:07:56 10° NE visible
30 Sep 8.8 19:52:22 10° NNW 19:56:15 21° W 20:00:08 10° SW visible
01 Oct 7.7 19:18:07 10° NNW 19:22:58 39° W 19:27:46 10° SSW visible
02 Oct 7.3 06:32:52 10° SSE 06:37:50 47° E 06:42:48 10° NNE visible
03 Oct 8.5 06:00:19 10° SE 06:04:30 25° E 06:08:42 10° NNE visible
03 Oct 9.3 19:53:21 10° NW 19:56:10 15° WNW 19:58:58 10° WSW visible
04 Oct 9.4 05:28:50 10° ESE 05:31:19 14° ENE 05:33:47 10° NE visible
04 Oct 8.5 19:18:36 10° NNW 19:22:57 27° W 19:27:16 10° SW visible
05 Oct 6.5 06:32:42 10° S 06:37:52 69° E 06:43:03 10° N visible
06 Oct 7.8 05:59:45 10° SSE 06:04:29 36° E 06:09:13 10° NNE visible
